Location: Devore Heights
(34.2372°N, 117.4156°W)
Time: 03:06:00
(UTC+00:00)

SR - Pass Details

Date: 17 September 2024
Orbit: 578 x 855 km, 66.7° (Epoch: 02 October)

Event Time Altitude Azimuth Distance (km) Brightness Sun altitude
Rises 19:49:40 0° 202° (SSW) 2,844 ? 57.6°
Reaches altitude 10° 19:51:56 10° 200° (SSW) 1,919 ? 57.5°
Maximum altitude 19:56:12 77° 114° (ESE) 599 ? 57.5°
Drops below altitude 10° 20:00:24 10° 29° (NNE) 1,893 ? 57.4°
Sets 20:02:38 0° 28° (NNE) 2,801 ? 57.3°
